Weather History for Cut Bank, MT

Change the Weather History Date:

Tuesday, July 30, 2013

  Actual Average Record
Temperature  
Mean Temperature 60 °F 66 °F  
Max Temperature 71 °F 82 °F 98 °F (1914)
Min Temperature 48 °F 51 °F 40 °F (1933)
Degree Days  
Heating Degree Days 5 2  
Month to date heating degree days 40 86  
Since 1 June heating degree days 249 319  
Since 1 July heating degree days 40 86  
Cooling Degree Days 0 3  
Month to date cooling degree days 85 69  
Year to date cooling degree days 99 86  
Since 1 June cooling degree days 97 84  
Growing Degree Days 10 (Base 50)    
Moisture  
Dew Point 46 °F    
Average Humidity 67    
Maximum Humidity 93    
Minimum Humidity 41    
Precipitation  
Precipitation 0.02 in 0.03 in 0.53 in (1931)
Month to date precipitation 1.57 1.24  
Year to date precipitation 9.36 7.43  
Snow  
Snow 0.00 in - - ()
Snow Depth 0.00 in    
Sea Level Pressure  
Sea Level Pressure 30.18 in    
Wind  
Wind Speed 6 mph (NNE)    
Max Wind Speed 28 mph    
Max Gust Speed 39 mph    
Visibility 10 miles    
Events Rain    
T = Trace of Precipitation, MM = Missing Value Source: NWS Daily Summary

Daily Weather History Graph

Daily Weather History Graph

Search for Another Location

Airport:

Trip Planner

Search our weather history database for the weather conditions in past years. The results will help you decide how hot, cold, wet, or windy it might be!

Date:

Astronomy

Jul. 30, 2013 Rise Set
Actual Time 6:01 AM MDT 9:09 PM MDT
Civil Twilight 5:24 AM MDT 9:46 PM MDT
Nautical Twilight 4:35 AM MDT 10:35 PM MDT
Astronomical Twilight 3:33 AM MDT 11:35 PM MDT
Moon 12:26 AM MDT (7/30) 3:31 PM MDT (7/30)
Length of Visible Light 16h 22m
Length of Day
15h 08m
Last Quarter, 40% of the Moon is Illuminated
Jul 30
Last Quarter
Aug 6
New
Aug 14
First Quarter
Aug 20
Full
Aug 28
Last Quarter

Hourly Weather History & Observations

Time (MDT) Temp. Dew Point Humidity Pressure Visibility Wind Dir Wind Speed Gust Speed Precip Events Conditions
12:56 AM 52.0 °F 46.0 °F 80% 30.14 in 10.0 mi NNW 3.5 mph - N/A   Mostly Cloudy
1:56 AM 51.1 °F 46.9 °F 86% 30.14 in 10.0 mi NW 6.9 mph - N/A   Overcast
2:56 AM 51.1 °F 46.9 °F 86% 30.13 in 10.0 mi WNW 5.8 mph - N/A   Overcast
3:56 AM 51.1 °F 46.9 °F 86% 30.12 in 10.0 mi West 4.6 mph - N/A   Overcast
4:56 AM 48.9 °F 46.9 °F 93% 30.14 in 10.0 mi North 6.9 mph - N/A   Clear
5:56 AM 48.0 °F 46.0 °F 93% 30.15 in 10.0 mi NNE 6.9 mph - N/A   Scattered Clouds
6:56 AM 50.0 °F 46.9 °F 89% 30.16 in 10.0 mi NNE 5.8 mph - N/A   Overcast
7:56 AM 53.1 °F 46.9 °F 80% 30.18 in 10.0 mi NNE 6.9 mph - N/A   Overcast
8:56 AM 54.0 °F 46.0 °F 75% 30.19 in 10.0 mi NE 4.6 mph - N/A   Overcast
9:56 AM 57.0 °F 46.9 °F 69% 30.19 in 10.0 mi NE 5.8 mph - N/A   Overcast
10:56 AM 60.1 °F 46.0 °F 60% 30.19 in 10.0 mi Calm Calm - N/A   Overcast
11:20 AM 60.8 °F 46.4 °F 59% 30.23 in 10.0 mi ENE 3.5 mph - N/A   Overcast
11:49 AM 60.8 °F 46.4 °F 59% 30.23 in 10.0 mi ENE 4.6 mph - N/A   Overcast
11:56 AM 60.1 °F 46.0 °F 60% 30.20 in 10.0 mi Calm Calm - N/A   Overcast
12:56 PM 62.1 °F 46.0 °F 56% 30.20 in 10.0 mi North 8.1 mph - N/A   Overcast
1:56 PM 64.0 °F 46.0 °F 52% 30.19 in 10.0 mi Calm Calm - N/A   Scattered Clouds
2:56 PM 68.0 °F 45.0 °F 43% 30.17 in 10.0 mi South 4.6 mph - N/A   Partly Cloudy
3:56 PM 71.1 °F 46.0 °F 41% 30.16 in 10.0 mi NNE 9.2 mph - N/A   Clear
4:56 PM 69.1 °F 46.0 °F 44% 30.15 in 10.0 mi NE 6.9 mph - N/A   Clear
5:56 PM 69.1 °F 46.0 °F 44% 30.16 in 10.0 mi NE 5.8 mph - N/A   Partly Cloudy
6:56 PM 63.0 °F 43.0 °F 48% 30.17 in 9.0 mi WNW 23.0 mph 39.1 mph 0.00 in Rain Light Rain
7:41 PM 66.2 °F 41.0 °F 40% 30.17 in 8.0 mi West 8.1 mph 19.6 mph 0.02 in Rain Light Rain
7:56 PM 66.9 °F 48.0 °F 51% 30.13 in 10.0 mi North 12.7 mph 17.3 mph 0.02 in   Scattered Clouds
8:56 PM 62.1 °F 48.9 °F 62% 30.18 in 10.0 mi Calm Calm - N/A   Clear
9:56 PM 59.0 °F 48.9 °F 69% 30.21 in 10.0 mi East 4.6 mph - N/A   Clear
10:56 PM 55.9 °F 48.0 °F 75% 30.22 in 10.0 mi East 4.6 mph - N/A   Clear
11:56 PM 55.9 °F 48.0 °F 75% 30.24 in 10.0 mi ENE 4.6 mph - N/A   Clear